sat.trackr.live / text

‹ back to catalog

STARLINK-6050

NORAD 56458 · 2023-064L

PAYLOAD ACTIVE UNKNOWN

§ Identity

Operator
Country
US
Launch date
2023-05-10
Launch site
AFWTR
Launch vehicle
Mass (kg)
RCS (m²)

Purposes: comms

External: N2YO · Heavens-Above · Gunter

§ Orbital elements

Epoch: 2026-09-20T11:46:36.098976Z

Period
96.11 min
Inclination
70.0013°
Eccentricity
0.0002890
Mean motion
14.98331701 rev/d
Perigee alt
570.0 km
Apogee alt
574.1 km
Semi-major
6,950.2 km
B*
3.5312e-5
RAAN
13.3626°
Arg perigee
271.0088°
Mean anomaly
89.0740°
Rev number
18,442

§ Raw data

STARLINK-60501 56458U 23064L   26263.49069559  .00000328  00000+0  35312-4 0  99992 56458  70.0013  13.3626 0002890 271.0088  89.0740 14.98331701184421

JSON: /api/v1/satellites/56458 · /tle

For live sub-satellite position, see the globe view (requires WebGL).

§ Visibility from observer

Set your observer location to see the next 7 days of passes ≥ 10°. The values pass through the URL so the page stays shareable.

No JS? Fill the form by hand. The geolocation button needs JavaScript.